Showing default

HAWK-B, 43794

Orbit data source: Space-Track

HAWK-B, 43794 is a payload satellite owned by HawkEye 360 (US) in SSO that was launched on Mon, 03 Dec 2018 UTC via an FALCON 9 launch vehicle from the Air Force Western Test Range (AFWTR). Payload-class satellites include a variety of spacecraft equipped with specific instruments for various scientific and technological missions. These include communications satellites like Starlink; space stations such as the ISS; scientific satellites like the Hubble; Earth observation satellites from companies like Planet Labs, Umbra, and HawkEye 360; GPS; miniature CubeSats for education and research; and military/defense satellites.

Loading next visibility...
Identifier
43794, 2018-099AN
Orbit
SSO
Country
Flag of USUS
Related business
Manufacturer
UTIAS-SFL
Mission
Operational Commercial Sigint
Bus & Motor
NEMO-V1, Unknown motor
Mass
12.75 kg wet, 12 kg dry
Launch date (UTC)
2018-12-03 (7 years ago)
Launch vehicle
FALCON 9
Launch site
Air Force Western Test Range (AFWTR)
Object type
Payload
Rocket body
Debris
Shape & HBR
Box + 2 Pan, 0.5 m
Radar Cross Section
0.348 m², Medium (>0.1 m² and < 1m²)

Expand to show TLE details & history
Last TLE update: 17 hours ago

TLE from 17 hours ago
0 HAWK-B
1 43794U 18099AN  25259.05794525  .00007145  00000-0  34814-3 0  9994
2 43794  97.4412 309.9985 0035236 180.1931 179.9296 15.18091958371372
Epoch: 2025-09-16T01:23Z
TLE epoch observation values (Epoch: 2025-09-16T01:23:26.469Z)
Latitude
0.00001°
Longitude
-66.11549°
Altitude
538.976 km
Speed
7.58 km/s
True Right ascension
20h 39m 59s
True Declination
0° 00' 00"
Sunlit
Object was in full shadow at epoch
Visualization orbit readout
Latitude
Unknown
Longitude
Unknown
Altitude
Unknown
Speed
Unknown
Apparent Right ascension
Unknown
Apparent Declination
Unknown
Sunlit
N/A
Visualization observer readout
Local Sidereal Time
10:41:01
Azimuth
Unknown
Elevation
Unknown
Doppler factor
Unknown
Orbital elements
Apogee altitude
532.843 km
Perigee altitude
484.311 km
Semi-major axis
6,886.714 km
Eccentricity
0.00352
Inclination
97.4412°
RAAN
309.9985°
Arg. of periapsis
180.1931°
True anomaly
179.93009°
Mean anomaly
179.9296°
Eccentric anomaly
179.92985°
Mean motion
3.79774 °/min
Orbital period
94.79 mins
BSTAR
0.00034814
Loading maneuver chart data...
Computing Atmospheric mass density...
Loading historical data...
Loading historical data...
Loading historical data...
Loading historical data...
Loading historical data...
Loading historical data...
Loading historical data...

Documentation

Showing up to 5 results
|